sat.trackr.live / text

‹ back to catalog

STARLINK-4083

NORAD 52832 · 2022-062C

PAYLOAD ACTIVE UNKNOWN

§ Identity

Operator
Country
US
Launch date
2022-06-17
Launch site
AFETR
Launch vehicle
Mass (kg)
RCS (m²)

Purposes: comms

External: N2YO · Heavens-Above · Gunter

§ Orbital elements

Epoch: 2026-05-25T00:20:53.231136Z

Period
95.44 min
Inclination
53.2163°
Eccentricity
0.0001636
Mean motion
15.08841672 rev/d
Perigee alt
538.6 km
Apogee alt
540.9 km
Semi-major
6,917.9 km
B*
4.2671e-5
RAAN
51.4836°
Arg perigee
90.1754°
Mean anomaly
269.9426°
Rev number
21,730

§ Raw data

STARLINK-40831 52832U 22062C   26145.01450499  .00000391  00000+0  42671-4 0  99982 52832  53.2163  51.4836 0001636  90.1754 269.9426 15.08841672217304

JSON: /api/v1/satellites/52832 · /tle

For live sub-satellite position, see the globe view (requires WebGL).

§ Visibility from observer

Set your observer location to see the next 7 days of passes ≥ 10°. The values pass through the URL so the page stays shareable.

No JS? Fill the form by hand. The geolocation button needs JavaScript.